Location: Arthez
(43.0833°N, 0.2500°W)
Time: 03:48:31
(UTC+00:00)

Okean O Rocket - Pass Details

Date: 23 October 2021
Orbit: 623 x 643 km, 98.2° (Epoch: 27 November)

Event Time Altitude Azimuth Distance (km) Brightness Sun altitude
Rises 18:48:45 0° 186° (S) 2,890 5.0 -19.5°
Reaches altitude 10° 18:51:04 10° 195° (SSW) 1,989 4.3 -19.9°
Maximum altitude 18:55:04 36° 262° (W) 988 3.2 -20.7°
Drops below altitude 10° 18:59:07 10° 330° (NNW) 2,010 4.6 -21.4°
Sets 19:01:28 0° 339° (NNW) 2,924 5.4 -21.8°
